G7GQA-4 Weather Reports


Display with metric or nautical units.
time (UTC)temp
F
wind
direction
speed
MPH
gust
MPH
rain 1hr
in
rain 24hr
in
rain mn
in
humidity
%
barometer
mb
20260508024527 49 108 1.0 3.0 0.00 0.00 0.00 79
20260508023527 50 48 2.0 3.0 0.00 0.00 0.00 78
20260508022527 50 102 1.0 2.0 0.00 0.00 0.00 78
20260508021527 50 96 1.0 3.0 0.00 0.00 0.00 78
20260508020527 49 96 1.0 3.0 0.00 0.00 0.00 78
20260508015527 49 78 0.0 2.0 0.00 0.00 0.00 79
20260508014527 49 78 0.0 1.0 0.00 0.00 0.00 79
20260508013527 49 78 0.0 2.0 0.00 0.00 0.00 79
20260508012527 48 0.0 0.0 0.00 0.00 0.00 81
20260508011527 48 0.0 0.0 0.00 0.00 0.00 80
20260508010527 49 0.0 0.0 0.00 0.00 0.00 80
20260508005527 49 0.0 0.0 0.00 0.00 0.00 78
20260508004527 49 0.0 0.0 0.00 0.00 0.00 77
20260508003527 49 0.0 0.0 0.00 0.00 0.00 78
20260508002527 50 0.0 0.0 0.00 0.00 0.00 77
20260508001527 50 0.0 0.0 0.00 0.00 0.00 76
20260508000527 51 0.0 0.0 0.00 0.00 0.00 75
20260507235527 51 78 0.0 2.0 0.00 0.00 0.00 76
20260507234527 51 9 0.0 2.0 0.00 0.00 0.00 76
20260507233527 51 276 0.0 1.0 0.00 0.00 0.00 76
20260507232527 52 276 0.0 3.0 0.00 0.00 0.00 74
20260507231527 52 276 0.0 2.0 0.00 0.00 0.00 74
20260507230527 52 63 1.0 3.0 0.00 0.00 0.00 76
20260507225027 53 93 1.0 3.0 0.00 0.00 0.00 75
20260507224027 53 102 0.0 2.0 0.00 0.00 0.00 74
20260507223028 52 254 1.0 4.0 0.00 0.00 0.00 74
20260507222027 51 258 0.0 2.0 0.00 0.00 0.00 78
20260507221027 51 0.0 0.0 0.00 0.00 0.00 80
20260507220027 52 0.0 0.0 0.00 0.00 0.00 81
20260507215027 51 0.0 0.0 0.00 0.00 0.00 81
20260507214027 52 0.0 0.0 0.00 0.00 0.00 82
20260507213027 52 0.0 0.0 0.00 0.00 0.00 81
20260507212027 52 0.0 0.0 0.00 0.00 0.00 81
20260507211027 52 258 0.0 2.0 0.00 0.00 0.00 81
20260507210027 52 0.0 0.0 0.00 0.00 0.00 81
20260507205027 52 258 0.0 1.0 0.00 0.00 0.00 81
20260507204027 52 0.0 0.0 0.00 0.00 0.00 80
20260507203028 52 258 0.0 2.0 0.00 0.00 0.00 79
20260507202027 52 258 0.0 2.0 0.00 0.00 0.00 79
20260507201027 53 258 0.0 2.0 0.00 0.00 0.00 77
20260507200027 53 258 0.0 1.0 0.00 0.00 0.00 74
20260507195028 53 257 1.0 6.0 0.00 0.00 0.00 76
20260507194028 52 126 0.0 2.0 0.00 0.00 0.00 83
20260507193027 52 0.0 0.0 0.00 0.00 0.00 85
20260507192028 53 0.0 0.0 0.00 0.00 0.00 84
20260507191027 53 0.0 0.0 0.00 0.00 0.00 84
20260507190027 53 0.0 0.0 0.00 0.00 0.00 83
20260507185027 53 0.0 0.0 0.00 0.00 0.00 85
20260507184027 53 0.0 0.0 0.00 0.00 0.00 86
20260507183027 53 0.0 0.0 0.00 0.00 0.00 84
20260507182027 53 0.0 0.0 0.00 0.00 0.00 83
20260507181027 53 0.0 0.0 0.00 0.00 0.00 81
20260507180027 53 306 0.0 2.0 0.00 0.00 0.00 82
20260507175027 54 306 0.0 2.0 0.00 0.00 0.00 81
20260507174027 54 306 0.0 1.0 0.00 0.00 0.00 79
20260507173027 55 0.0 0.0 0.00 0.00 0.00 77
20260507172027 55 304 0.0 2.0 0.00 0.00 0.00 73
20260507171027 57 282 0.0 2.0 0.00 0.00 0.00 67
20260507170027 57 0.0 0.0 0.00 0.00 0.00 61
20260507165027 58 0.0 0.0 0.00 0.00 0.00 59
20260507164027 58 282 0.0 2.0 0.00 0.00 0.00 57
20260507163027 58 253 1.0 4.0 0.00 0.00 0.00 54
20260507162027 59 0.0 0.0 0.00 0.00 0.00 52
20260507161027 59 270 0.0 2.0 0.00 0.00 0.00 50
20260507160027 59 270 1.0 2.0 0.00 0.00 0.00 49
20260507155028 60 273 1.0 3.0 0.00 0.00 0.00 49
20260507154028 60 144 0.0 2.0 0.00 0.00 0.00 50
20260507153028 59 264 0.0 2.0 0.00 0.00 0.00 49
20260507152028 59 260 1.0 3.0 0.00 0.00 0.00 49
20260507151028 60 258 1.0 2.0 0.00 0.00 0.00 48
20260507150028 60 228 1.0 3.0 0.00 0.00 0.00 47
20260507145028 60 261 1.0 3.0 0.00 0.00 0.00 47
20260507144028 60 127 1.0 4.0 0.00 0.00 0.00 47
20260507143028 60 217 0.0 2.0 0.00 0.00 0.00 46
20260507142027 60 109 1.0 4.0 0.00 0.00 0.00 46
20260507141027 61 240 1.0 3.0 0.00 0.00 0.00 46
20260507140027 61 261 1.0 3.0 0.00 0.00 0.00 46
20260507135027 62 187 1.0 2.0 0.00 0.00 0.00 44
20260507134027 62 241 1.0 3.0 0.00 0.00 0.00 41
20260507133027 62 110 1.0 3.0 0.00 0.00 0.00 41
20260507132027 63 231 1.0 3.0 0.00 0.00 0.00 41
20260507131027 63 141 2.0 4.0 0.00 0.00 0.00 40
20260507130027 63 244 2.0 4.0 0.00 0.00 0.00 38
20260507125027 64 231 1.0 4.0 0.00 0.00 0.00 39
20260507124027 62 290 1.0 2.0 0.00 0.00 0.00 41
20260507123027 62 108 2.0 5.0 0.00 0.00 0.00 41
20260507122027 61 144 2.0 4.0 0.00 0.00 0.00 43
20260507121027 60 128 1.0 4.0 0.00 0.00 0.00 46
20260507120027 62 180 2.0 5.0 0.00 0.00 0.00 47
20260507115027 61 219 1.0 3.0 0.00 0.00 0.00 46
20260507114028 62 240 1.0 4.0 0.00 0.00 0.00 48
20260507113027 61 254 1.0 4.0 0.00 0.00 0.00 51
20260507112027 60 108 1.0 3.0 0.00 0.00 0.00 54
20260507111027 58 107 1.0 2.0 0.00 0.00 0.00 58
20260507110027 58 125 2.0 4.0 0.00 0.00 0.00 59
20260507105027 58 286 1.0 6.0 0.00 0.00 0.00 62
20260507104027 56 134 2.0 6.0 0.00 0.00 0.00 66
20260507103027 55 138 1.0 3.0 0.00 0.00 0.00 66
20260507102027 55 43 1.0 3.0 0.00 0.00 0.00 66
20260507101027 55 262 1.0 4.0 0.00 0.00 0.00 67
20260507100027 54 122 1.0 2.0 0.00 0.00 0.00 68
20260507095027 53 245 1.0 4.0 0.00 0.00 0.00 71
20260507094027 52 5 2.0 6.0 0.00 0.00 0.00 73
20260507093027 52 83 1.0 3.0 0.00 0.00 0.00 74
20260507092027 51 187 1.0 4.0 0.00 0.00 0.00 75
20260507091027 50 129 1.0 4.0 0.00 0.00 0.00 78
20260507090027 50 73 1.0 3.0 0.00 0.00 0.00 78
20260507085027 49 154 1.0 4.0 0.00 0.00 0.00 80
20260507084027 49 270 1.0 2.0 0.00 0.00 0.00 81
20260507083027 48 266 1.0 4.0 0.00 0.00 0.00 83
20260507082027 48 98 2.0 4.0 0.00 0.00 0.00 83
20260507081028 47 148 1.0 2.0 0.00 0.00 0.00 84
20260507080027 47 217 1.0 2.0 0.00 0.00 0.00 84
20260507075027 46 67 2.0 4.0 0.00 0.00 0.00 85
20260507074027 46 114 2.0 4.0 0.00 0.00 0.00 85
20260507073027 46 33 1.0 3.0 0.00 0.00 0.00 87
20260507072027 46 104 1.0 2.0 0.00 0.00 0.00 88
20260507071027 45 246 1.0 4.0 0.00 0.00 0.00 88
20260507070027 45 111 2.0 5.0 0.00 0.00 0.00 88
20260507065027 45 101 2.0 5.0 0.00 0.00 0.00 89
20260507064027 45 124 2.0 3.0 0.00 0.00 0.00 89
20260507063027 44 116 1.0 2.0 0.00 0.00 0.00 89
20260507062027 44 96 1.0 3.0 0.00 0.00 0.00 89
20260507061027 44 150 1.0 4.0 0.00 0.00 0.00 90
20260507060027 43 182 1.0 4.0 0.00 0.00 0.00 90
20260507055027 43 138 1.0 2.0 0.00 0.00 0.00 90
20260507054027 43 206 1.0 2.0 0.00 0.00 0.00 90
20260507053027 43 132 1.0 2.0 0.00 0.00 0.00 90
20260507052027 43 137 1.0 3.0 0.00 0.00 0.00 90
20260507051027 43 137 1.0 2.0 0.00 0.00 0.00 91
20260507045527 42 138 1.0 2.0 0.00 0.00 0.00 91
20260507044527 42 132 0.0 2.0 0.00 0.00 0.00 91
20260507043527 42 132 0.0 2.0 0.00 0.00 0.00 91
20260507042527 42 132 0.0 1.0 0.00 0.00 0.00 91
20260507041527 42 132 0.0 1.0 0.00 0.00 0.00 91
20260507040527 42 108 0.0 2.0 0.00 0.00 0.00 92
20260507035527 42 108 0.0 2.0 0.00 0.00 0.00 92
20260507034527 42 108 1.0 3.0 0.00 0.00 0.00 92
20260507033527 42 103 1.0 2.0 0.00 0.00 0.00 92
20260507032527 42 114 0.0 2.0 0.00 0.00 0.00 92
20260507031527 42 114 0.0 2.0 0.00 0.00 0.00 92
20260507030527 42 114 0.0 2.0 0.00 0.00 0.00 92
20260507025527 42 114 0.0 2.0 0.00 0.00 0.00 92